DELTA 1 DEB, 42566

Orbit data source: Space-Track

DELTA 1 DEB, 42566 is space debris in SSO originally from a launch on Sun, 23 Jul 1972 UTC launched from the Air Force Western Test Range (AFWTR). Debris objects in space refer to the collection of defunct objects orbiting the Earth. Examples of debris include non-operational satellites, rocket bodies, and fragments generated from explosions, collisions, or faulty payload assembly.

Loading next visibility...
Identifier
42566, 1972-058JZ
Orbit
SSO
Country
Flag of USUS
Related business
Manufacturer
Unknown
Mission
Spacecraft
Bus & Motor
Unknown
Mass
Unknown
Launch date (UTC)
1972-07-23 (54 years ago)
Launch vehicle
Unknown
Launch site
Air Force Western Test Range (AFWTR)
Object type
Payload
Rocket body
Debris
Shape & HBR
Unknown shape, 0.1 m
Radar Cross Section
Medium (>0.1 m² and <1 m²)

Expand to show TLE details & history
Last TLE update: 1 week ago

TLE from 1 week ago
0 DELTA 1 DEB
1 42566U 72058JZ  26151.60116292  .00001455  00000-0  83452-3 0  9997
2 42566  98.1406 276.7447 0478786 110.3328 254.9926 13.65070790621271
Epoch: 2026-05-31T14:25Z
TLE epoch observation values (Epoch: 2026-05-31T14:25:40.476Z)
Latitude
-0.00002°
Longitude
171.22555°
Altitude
1,127.404 km
Speed
7.236 km/s
True Right ascension
18h 26m 58s
True Declination
0° 00' 00"
Sunlit
Object was in full shadow at epoch
Visualization orbit readout
Latitude
Unknown
Longitude
Unknown
Altitude
Unknown
Speed
Unknown
Apparent Right ascension
Unknown
Apparent Declination
Unknown
Sunlit
N/A
Visualization observer readout
Local Sidereal Time
08:11:14
Azimuth
Unknown
Elevation
Unknown
Doppler factor
Unknown
Orbital elements
Apogee altitude
1,368.468 km
Perigee altitude
660.568 km
Semi-major axis
7,392.655 km
Eccentricity
0.04788
Inclination
98.1406°
RAAN
276.7447°
Arg. of periapsis
110.3328°
True anomaly
249.78135°
Mean anomaly
254.9926°
Eccentric anomaly
252.37809°
Mean motion
3.41462 °/min
Orbital period
105.43 mins
BSTAR
0.00083452
Loading maneuver chart data...
Computing Atmospheric mass density...
Loading historical data...
Loading historical data...
Loading historical data...
Loading historical data...
Loading historical data...
Loading historical data...
Loading historical data...

Documentation

Showing up to 5 results
|